EW6171 Weather Reports


time (UTC)temp
F
wind
direction
speed
knots
gust
knots
rain 1hr
in
rain 24hr
in
rain mn
in
humidity
%
barometer
mb
20260507234549 0 75 0.9 3.5 0.00 0.00 0.00 1009.9
20260507234039 0 35 0.9 3.5 0.00 0.00 0.00 1009.9
20260507233529 0 61 0.0 2.6 0.00 0.00 0.00 1010.0
20260507233013 0 48 0.9 2.6 0.00 0.00 0.00 1010.2
20260507232503 0 46 0.9 2.6 0.00 0.00 0.00 1010.3
20260507231955 0 52 0.9 2.6 0.00 0.00 0.00 1010.2
20260507231445 0 41 0.9 3.5 0.00 0.00 0.00 1010.2
20260507230935 0 38 0.9 3.5 0.00 0.00 0.00 1010.3
20260507230431 0 38 1.7 3.5 0.00 0.00 0.00 1010.1
20260507225921 0 49 2.6 4.3 0.00 0.00 0.00 1010.0
20260507225642 0 56 2.6 4.3 0.00 0.00 0.00 1010.0
20260507225136 0 53 1.7 4.3 0.00 0.00 0.00 1010.1
20260507224357 0 45 2.6 4.3 0.00 0.00 0.00 1010.1
20260507223849 0 52 2.6 6.1 0.00 0.00 0.00 1010.1
20260507223334 0 48 3.5 7.0 0.00 0.00 0.00 1010.1
20260507222819 0 61 3.5 7.0 0.00 0.00 0.00 1010.0
20260507222318 0 29 3.5 7.0 0.00 0.00 0.00 1009.9
20260507221815 0 47 3.5 7.0 0.00 0.00 0.00 1010.0
20260507221309 0 45 3.5 7.8 0.00 0.00 0.00 1010.0
20260507220810 0 52 3.5 8.7 0.00 0.00 0.00 1009.9
20260507220532 0 10 3.5 7.0 0.00 0.00 0.00 1009.9
20260507215801 0 51 4.3 7.0 0.00 0.00 0.00 1010.0
20260507215258 0 53 3.5 7.0 0.00 0.00 0.00 1010.1
20260507214749 0 76 3.5 7.8 0.00 0.00 0.00 1010.1
20260507214516 0 10 3.5 8.7 0.00 0.00 0.00 1010.1
20260507213737 0 10 3.5 8.7 0.00 0.00 0.00 1010.1
20260507213505 0 10 4.3 9.6 0.00 0.00 0.00 1010.2
20260507212728 0 42 4.3 9.6 0.00 0.00 0.00 1010.3
20260507212223 0 53 4.3 7.8 0.00 0.00 0.00 1010.3
20260507211719 0 30 5.2 8.7 0.00 0.00 0.00 1010.4
20260507211446 0 60 6.1 9.6 0.00 0.00 0.00 1010.4
20260507210708 0 10 7.0 9.6 0.00 0.00 0.00 1010.4
20260507210203 0 10 7.0 9.6 0.00 0.00 0.00 1010.4
20260507205657 0 10 6.1 9.6 0.00 0.00 0.00 1010.5
20260507205152 0 10 7.0 9.6 0.00 0.00 0.00 1010.5
20260507204644 0 61 6.1 9.6 0.00 0.00 0.00 1010.6
20260507204139 0 55 6.1 9.6 0.00 0.00 0.00 1010.7
20260507203632 0 50 6.1 9.6 0.00 0.00 0.00 1010.8
20260507203124 0 61 5.2 8.7 0.00 0.00 0.00 1011.0
20260507202621 0 54 6.1 9.6 0.00 0.00 0.00 1011.1
20260507202113 0 10 6.1 9.6 0.00 0.00 0.00 1011.2
20260507201607 0 10 4.3 8.7 0.00 0.00 0.00 1011.2
20260507201101 0 40 4.3 7.8 0.00 0.00 0.00 1011.2
20260507200552 0 60 4.3 7.8 0.00 0.00 0.00 1011.3
20260507200044 0 10 5.2 8.7 0.00 0.00 0.00 1011.4
20260507195533 0 10 4.3 10.4 0.00 0.00 0.00 1011.4
20260507195024 0 10 4.3 10.4 0.00 0.00 0.00 1011.5
20260507194514 0 10 4.3 8.7 0.00 0.00 0.00 1011.5
20260507194004 0 37 5.2 8.7 0.00 0.00 0.00 1011.5
20260507193454 0 10 4.3 9.6 0.00 0.00 0.00 1011.5
20260507192945 0 21 5.2 9.6 0.00 0.00 0.00 1011.5
20260507192435 0 10 5.2 9.6 0.00 0.00 0.00 1011.6
20260507191925 0 10 6.1 9.6 0.00 0.00 0.00 1011.7
20260507191415 0 21 6.1 9.6 0.00 0.00 0.00 1011.9
20260507191136 0 23 6.1 9.6 0.00 0.00 0.00 1011.9
20260507190354 0 19 5.2 9.6 0.00 0.00 0.00 1012.1
20260507185844 0 10 6.1 9.6 0.00 0.00 0.00 1012.1
20260507185337 0 34 5.2 9.6 0.00 0.00 0.00 1012.1
20260507184824 0 10 5.2 8.7 0.00 0.00 0.00 1012.2
20260507184315 0 10 4.3 8.7 0.00 0.00 0.00 1012.2
20260507183804 0 19 4.3 9.6 0.00 0.00 0.00 1012.4
20260507183254 0 10 4.3 9.6 0.00 0.00 0.00 1012.5
20260507182744 0 48 4.3 9.6 0.00 0.00 0.00 1012.5
20260507182234 0 20 5.2 10.4 0.00 0.00 0.00 1012.5
20260507181723 0 10 5.2 10.4 0.00 0.00 0.00 1012.6
20260507181212 0 10 5.2 10.4 0.00 0.00 0.00 1012.6
20260507180700 0 10 6.1 11.3 0.00 0.00 0.00 1012.5
20260507180423 0 32 7.8 11.3 0.00 0.00 0.00 1012.5
20260507175641 0 10 7.0 10.4 0.00 0.00 0.00 1012.4
20260507174625 0 26 7.0 12.2 0.00 0.00 0.00 1012.5
20260507174115 0 10 6.1 12.2 0.00 0.00 0.00 1012.7
20260507173605 0 37 6.1 12.2 0.00 0.00 0.00 1012.7
20260507173326 0 10 7.0 12.2 0.00 0.00 0.00 1012.7
20260507172544 0 10 7.0 11.3 0.00 0.00 0.00 1012.9
20260507172308 0 10 7.0 11.3 0.00 0.00 0.00 1012.9
20260507171524 0 10 7.8 12.2 0.00 0.00 0.00 1012.8
20260507171015 0 10 7.8 13.0 0.00 0.00 0.00 1012.7
20260507170735 0 348 7.8 13.0 0.00 0.00 0.00 1012.8
20260507165955 0 15 8.7 12.2 0.00 0.00 0.00 1012.7
20260507165444 0 42 7.8 13.0 0.00 0.00 0.00 1012.7
20260507164934 0 23 7.0 12.2 0.00 0.00 0.00 1012.7
20260507164424 0 10 7.0 12.2 0.00 0.00 0.00 1012.7
20260507163914 0 10 7.0 11.3 0.00 0.00 0.00 1012.8
20260507163404 0 10 7.0 11.3 0.00 0.00 0.00 1012.8
20260507162854 0 10 6.1 11.3 0.00 0.00 0.00 1012.8
20260507162344 0 10 6.1 11.3 0.00 0.00 0.00 1012.8
20260507161834 0 20 5.2 10.4 0.00 0.00 0.00 1012.7
20260507161324 0 48 5.2 11.3 0.00 0.00 0.00 1012.6
20260507160815 0 10 6.1 11.3 0.00 0.00 0.00 1012.7
20260507160536 0 10 5.2 11.3 0.00 0.00 0.00 1012.6
20260507155754 0 5 5.2 8.7 0.00 0.00 0.00 1012.5
20260507155514 0 10 5.2 9.6 0.00 0.00 0.00 1012.6
20260507155001 0 10 6.1 11.3 0.00 0.00 0.00 1012.6
20260507154452 0 10 6.1 11.3 0.00 0.00 0.00 1012.6
20260507153710 0 10 6.1 11.3 0.00 0.00 0.00 1012.5
20260507153200 0 352 6.1 11.3 0.00 0.00 0.00 1012.5
20260507152650 0 10 7.0 13.0 0.00 0.00 0.00 1012.3
20260507152140 0 5 7.8 13.0 0.00 0.00 0.00 1012.1
20260507151631 0 41 7.8 13.0 0.00 0.00 0.00 1012.0
20260507151120 0 50 7.0 12.2 0.00 0.00 0.00 1012.1
20260507150610 0 5 7.0 12.2 0.00 0.00 0.00 1012.1
20260507150101 0 10 7.0 11.3 0.00 0.00 0.00 1012.1
20260507145546 0 25 7.8 13.0 0.00 0.00 0.00 1012.2
20260507145307 0 19 7.8 13.0 0.00 0.00 0.00 1012.2
20260507144526 0 51 7.0 13.0 0.00 0.00 0.00 1012.2
20260507144247 0 10 7.0 13.0 0.00 0.00 0.00 1012.0
20260507143458 0 34 7.8 13.0 0.00 0.00 0.00 1012.0
20260507142941 0 10 7.0 13.0 0.00 0.00 0.00 1012.0
20260507142423 0 15 7.8 13.9 0.00 0.00 0.00 1011.8
20260507141912 0 30 7.8 13.9 0.00 0.00 0.00 1011.9
20260507141403 0 10 7.0 12.2 0.00 0.00 0.00 1012.0
20260507141123 0 32 7.8 13.0 0.00 0.00 0.00 1012.0
20260507140343 0 10 8.7 13.0 0.00 0.00 0.00 1011.9
20260507135844 0 38 7.8 13.0 0.00 0.00 0.00 1011.8
20260507135335 0 1 7.8 13.0 0.00 0.00 0.00 1012.0
20260507134825 0 10 7.8 13.0 0.00 0.00 0.00 1011.9
20260507134315 0 10 7.8 13.0 0.00 0.00 0.00 1011.9
20260507133804 0 10 8.7 13.0 0.00 0.00 0.00 1011.9
20260507133526 0 10 7.8 13.0 0.00 0.00 0.00 1011.9
20260507132744 0 10 7.0 13.0 0.00 0.00 0.00 1011.7
20260507132506 0 0 7.0 12.2 0.00 0.00 0.00 1011.6
20260507131724 0 10 7.0 12.2 0.00 0.00 0.00 1011.5
20260507131214 0 42 7.8 13.0 0.00 0.00 0.00 1011.4
20260507130705 0 5 7.8 13.0 0.00 0.00 0.00 1011.3
20260507130154 0 10 6.1 10.4 0.00 0.00 0.00 1011.2
20260507125631 0 21 5.2 8.7 0.00 0.00 0.00 1010.9
20260507125123 0 50 6.1 10.4 0.00 0.00 0.00 1011.0
20260507124609 0 5 6.1 11.3 0.00 0.00 0.00 1010.9
20260507124100 0 10 5.2 10.4 0.00 0.00 0.00 1011.1
20260507123552 0 38 5.2 10.4 0.00 0.00 0.00 1010.9
20260507123046 0 10 7.0 11.3 0.00 0.00 0.00 1010.7
20260507122539 0 359 6.1 11.3 0.00 0.00 0.00 1010.5
20260507122035 0 15 6.1 11.3 0.00 0.00 0.00 1010.6
20260507121524 0 51 7.0 11.3 0.00 0.00 0.00 1010.5
20260507121250 0 5 6.1 9.6 0.00 0.00 0.00 1010.4
20260507120517 0 50 6.1 10.4 0.00 0.00 0.00 1010.7
20260507120015 0 15 5.2 10.4 0.00 0.00 0.00 1010.8
20260507115511 0 10 4.3 8.7 0.00 0.00 0.00 1010.9
20260507115233 0 15 4.3 8.7 0.00 0.00 0.00 1011.1
20260507114456 0 10 5.2 8.7 0.00 0.00 0.00 1011.3
20260507113953 0 10 6.1 8.7 0.00 0.00 0.00 1011.3
20260507113448 0 5 6.1 8.7 0.00 0.00 0.00 1010.9
20260507112943 0 19 5.2 9.6 0.00 0.00 0.00 1010.7
20260507112436 0 10 4.3 9.6 0.00 0.00 0.00 1010.7
20260507111927 0 10 4.3 8.7 0.00 0.00 0.00 1010.6
20260507111657 0 5 3.5 8.7 0.00 0.00 0.00 1010.5
20260507110922 0 10 3.5 8.7 0.00 0.00 0.00 1010.4
20260507110419 0 10 4.3 8.7 0.00 0.00 0.00 1010.3
20260507110144 0 5 4.3 8.7 0.00 0.00 0.00 1010.4
20260507105410 0 10 4.3 9.6 0.00 0.00 0.00 1010.4
20260507104918 0 352 5.2 9.6 0.00 0.00 0.00 1010.3
20260507104349 0 39 5.2 10.4 0.00 0.00 0.00 1010.2
20260507103844 0 10 6.1 10.4 0.00 0.00 0.00 1010.1
20260507103341 0 5 6.1 9.6 0.00 0.00 0.00 1010.0
20260507102833 0 10 6.1 9.6 0.00 0.00 0.00 1010.1
20260507102333 0 10 5.2 8.7 0.00 0.00 0.00 1010.2
20260507101831 0 5 5.2 8.7 0.00 0.00 0.00 1010.1
20260507101327 0 10 6.1 9.6 0.00 0.00 0.00 1010.1
20260507100826 0 10 7.0 10.4 0.00 0.00 0.00 1010.1
20260507100323 0 10 7.8 10.4 0.00 0.00 0.00 1010.0
20260507095819 0 15 6.1 10.4 0.00 0.00 0.00 1009.9
20260507095312 0 10 5.2 8.7 0.00 0.00 0.00 1009.8
20260507094804 0 10 3.5 8.7 0.00 0.00 0.00 1009.6
20260507094302 0 5 3.5 8.7 0.00 0.00 0.00 1009.6
20260507094026 0 0 4.3 8.7 0.00 0.00 0.00 1009.7
20260507093246 0 5 5.2 10.4 0.00 0.00 0.00 1009.7
20260507092735 0 33 6.1 10.4 0.00 0.00 0.00 1009.6
20260507092227 0 10 4.3 9.6 0.00 0.00 0.00 1009.7
20260507091941 0 39 4.3 8.7 0.00 0.00 0.00 1009.6
20260507091432 0 42 4.3 8.7 0.00 0.00 0.00 1009.6
20260507090652 0 51 4.3 8.7 0.00 0.00 0.00 1009.5
20260507090425 0 22 4.3 7.8 0.00 0.00 0.00 1009.6
20260507085641 0 19 4.3 11.3 0.00 0.00 0.00 1009.6
20260507085141 0 20 5.2 11.3 0.00 0.00 0.00 1009.6
20260507084640 0 10 6.1 9.6 0.00 0.00 0.00 1009.6
20260507084130 0 359 6.1 10.4 0.00 0.00 0.00 1009.5
20260507083617 0 10 6.1 10.4 0.00 0.00 0.00 1009.5
20260507083108 0 5 5.2 9.6 0.00 0.00 0.00 1009.5
20260507082558 0 10 4.3 8.7 0.00 0.00 0.00 1009.5
20260507082046 0 10 4.3 9.6 0.00 0.00 0.00 1009.5
20260507081802 0 348 4.3 9.6 0.00 0.00 0.00 1009.5
20260507081022 0 10 5.2 9.6 0.00 0.00 0.00 1009.5
20260507080511 0 10 4.3 9.6 0.00 0.00 0.00 1009.5
20260507080001 0 69 4.3 9.6 0.00 0.00 0.00 1009.5
20260507075450 0 10 3.5 7.8 0.00 0.00 0.00 1009.5
20260507075210 0 10 3.5 7.8 0.00 0.00 0.00 1009.5
20260507074430 0 10 3.5 7.8 0.00 0.00 0.00 1009.4
20260507073925 0 32 4.3 7.8 0.00 0.00 0.00 1009.5
20260507073416 0 5 5.2 9.6 0.00 0.00 0.00 1009.5
20260507072905 0 10 4.3 9.6 0.00 0.00 0.00 1009.6
20260507072355 0 10 4.3 9.6 0.00 0.00 0.00 1009.7
20260507071845 0 36 4.3 9.6 0.00 0.00 0.00 1009.7
20260507071340 0 15 5.2 9.6 0.00 0.00 0.00 1009.6
20260507071103 0 10 5.2 9.6 0.00 0.00 0.00 1009.7
20260507070319 0 10 4.3 9.6 0.00 0.00 0.00 1009.7
20260507065807 0 47 5.2 8.7 0.00 0.00 0.00 1009.8
20260507065529 0 42 5.2 10.4 0.00 0.00 0.00 1009.8
20260507064241 0 358 6.1 11.3 0.00 0.00 0.00 1009.8
20260507063731 0 10 6.1 11.3 0.00 0.00 0.00 1009.9
20260507063452 0 345 6.1 10.4 0.00 0.00 0.00 1009.9
20260507062722 0 358 5.2 9.6 0.00 0.00 0.00 1009.9
20260507062223 0 51 4.3 9.6 0.00 0.00 0.00 1009.8
20260507061713 0 10 5.2 9.6 0.00 0.00 0.00 1009.9
20260507061205 0 10 5.2 9.6 0.00 0.00 0.00 1009.8
20260507060655 0 10 6.1 9.6 0.00 0.00 0.00 1009.9
20260507060145 0 5 5.2 9.6 0.00 0.00 0.00 1009.7
20260507055635 0 341 4.3 9.6 0.00 0.00 0.00 1009.7
20260507055124 0 10 5.2 9.6 0.00 0.00 0.00 1009.5
20260507054615 0 46 5.2 9.6 0.00 0.00 0.00 1009.5
20260507054055 0 27 4.3 8.7 0.00 0.00 0.00 1009.5
20260507053546 0 10 4.3 8.7 0.00 0.00 0.00 1009.5
20260507053035 0 15 4.3 9.6 0.00 0.00 0.00 1009.4
20260507052523 0 1 5.2 10.4 0.00 0.00 0.00 1009.4
20260507052244 0 10 7.0 10.4 0.00 0.00 0.00 1009.3
20260507051724 0 32 6.1 10.4 0.00 0.00 0.00 1009.3
20260507050421 0 19 6.1 11.3 0.00 0.00 0.00 1009.4
20260507045914 0 10 7.0 10.4 0.00 0.00 0.00 1009.5
20260507045405 0 10 6.1 10.4 0.00 0.00 0.00 1009.5
20260507044854 0 10 4.3 8.7 0.00 0.00 0.00 1009.5
20260507043826 0 5 4.3 8.7 0.00 0.00 0.00 1009.4
20260507043316 0 15 5.2 9.6 0.00 0.00 0.00 1009.2
20260507042805 0 24 5.2 10.4 0.00 0.00 0.00 1009.3
20260507042255 0 0 4.3 10.4 0.00 0.00 0.00 1009.4
20260507041744 0 49 5.2 10.4 0.00 0.00 0.00 1009.3
20260507041235 0 27 6.1 9.6 0.00 0.00 0.00 1009.2
20260507040722 0 10 6.1 10.4 0.00 0.00 0.00 1009.3
20260507040212 0 5 6.1 11.3 0.00 0.00 0.00 1009.1
20260507035702 0 38 6.1 11.3 0.00 0.00 0.00 1009.0
20260507034642 0 19 5.2 12.2 0.00 0.00 0.00 1008.9
20260507034132 0 29 6.1 12.2 0.00 0.00 0.00 1008.8
20260507033622 0 10 6.1 12.2 0.00 0.00 0.00 1008.8
20260507033112 0 34 5.2 10.4 0.00 0.00 0.00 1008.7
20260507032554 0 29 5.2 11.3 0.00 0.00 0.00 1008.6
20260507032045 0 20 5.2 8.7 0.00 0.00 0.00 1008.6
20260507031534 0 43 5.2 9.6 0.00 0.00 0.00 1008.4
20260507031248 0 5 5.2 9.6 0.00 0.00 0.00 1008.4
20260507030738 0 10 6.1 9.6 0.00 0.00 0.00 1008.4
20260507025448 0 10 2.6 9.6 0.00 0.00 0.00 1008.2
20260507024943 0 10 0.9 3.5 0.00 0.00 0.00 1008.1
20260507024432 0 10 0.0 1.7 0.00 0.00 0.00 1008.0
20260507023923 0 61 0.0 0.0 0.00 0.00 0.00 1007.8
20260507023413 0 109 0.0 0.0 0.00 0.00 0.00 1007.7
20260507022905 0 109 0.0 0.0 0.00 0.00 0.00 1007.6
20260507022354 0 109 0.0 0.0 0.00 0.00 0.00 1007.6
20260507021845 0 109 0.0 0.0 0.00 0.00 0.00 1007.4
20260507021337 0 109 0.0 0.0 0.00 0.00 0.00 1007.3
20260507020829 0 109 0.0 0.9 0.00 0.00 0.00 1007.2
20260507020321 0 109 0.0 1.7 0.00 0.00 0.00 1007.0
20260507015811 0 114 0.0 1.7 0.00 0.00 0.00 1006.8
20260507015307 0 112 0.0 1.7 0.00 0.00 0.00 1006.7
20260507014801 0 115 0.0 1.7 0.00 0.00 0.00 1006.7
20260507014252 0 108 0.0 1.7 0.00 0.00 0.00 1006.6
20260507013237 0 113 0.9 1.7 0.00 0.00 0.00 1006.6
20260507012734 0 114 0.0 1.7 0.00 0.00 0.00 1006.5
20260507012230 0 116 0.0 1.7 0.00 0.00 0.00 1006.5
20260507011725 0 117 0.0 1.7 0.00 0.00 0.00 1006.4
20260507011218 0 117 0.0 0.9 0.00 0.00 0.00 1006.3
20260507010715 0 117 0.0 0.9 0.00 0.00 0.00 1006.3
20260507010212 0 117 0.0 0.0 0.00 0.00 0.00 1006.3
20260507005946 0 117 0.0 0.0 0.00 0.00 0.00 1006.3
20260507005210 0 117 0.0 0.9 0.00 0.00 0.00 1006.3
20260507004710 0 117 0.0 1.7 0.00 0.00 0.00 1006.2
20260507004206 0 156 0.9 3.5 0.00 0.00 0.00 1006.1
20260507003709 0 146 2.6 7.0 0.00 0.00 0.00 1005.9
20260507003438 0 10 2.6 7.0 0.00 0.00 0.00 1005.9
20260507002704 0 10 1.7 7.0 0.00 0.00 0.00 1005.7
20260507002159 0 150 2.6 7.0 0.00 0.00 0.00 1005.7
20260507001138 0 10 4.3 8.7 0.00 0.00 0.00 1005.5
20260507000634 0 10 5.2 8.7 0.00 0.00 0.00 1005.4
20260507000358 0 10 6.1 8.7 0.00 0.00 0.00 1005.4
20260506235622 0 10 5.2 8.7 0.00 0.00 0.00 1005.4
20260506235115 0 10 4.3 7.8 0.00 0.00 0.00 1005.5